Home   Weather   Town of Paris   Past weeks
Flag for USA

Past Weather in Town of Paris, Wisconsin, USA — Yesterday and Last 2 Weeks

Now
28 °F

Overcast.


Feels Like: 18 °F
Forecast: 32 / 23 °F
Wind: 12 mph from West

Location: Kenosha Regional Airport

Current Time: Nov 14, 2019 at 5:39:07 pm

Latest Report: Nov 14, 2019 at 4:53 pm


Visibility: 10 mi

Pressure: 30.29 "Hg

Humidity: 72%

Dew Point: 20 °F

Location of Town of ParisLocation

Past Weather in Town of Paris — Graph

°F

Town of Paris Temperature Yesterday

Maximum temperature yesterday: 27 °F (at 5:53 pm)
Minimum temperature yesterday: 13 °F (at 12:53 am)
Average temperature yesterday: 22 °F

High & Low Weather Summary for the Past Weeks

 TemperatureHumidityPressure
High50 °F (Nov 3, 3:53 pm)100% (Nov 1, 9:12 pm)30.53 "Hg (Nov 1, 9:12 pm)
Low7 °F (Nov 12, 6:53 am)45% (Nov 8, 12:53 pm)29.80 "Hg (Oct 31, 9:53 am)
Average31 °F75%30.18 "Hg
* Reported Oct 30 4:53 pm — Nov 14 3:53 pm, Town of Paris. Weather by CustomWeather, © 2019

Note: Actual official high and low records may vary slightly from our data, if they occured in-between our weather recording intervals... More about our weather records

Advertising

Town of Paris Weather History for the Previous 24 Hours

Scroll right to see more
 ConditionsComfort  
Time TempWeatherWind HumidityBarometerVisibility
3:53 pm
Thu, Nov 14
29 °FOvercast.13 mph69%30.27 "Hg10 mi
2:53 pm29 °FOvercast.12 mph72%30.24 "Hg10 mi
1:53 pm30 °FOvercast.13 mph69%30.24 "Hg10 mi
12:53 pm30 °FOvercast.9 mph66%30.24 "Hg10 mi
11:53 am30 °FOvercast.8 mph72%30.25 "Hg10 mi
10:53 am29 °FOvercast.9 mph75%30.26 "Hg8 mi
9:53 am28 °FOvercast.8 mph78%30.25 "Hg7 mi
8:53 am27 °FIce fog.6 mph85%30.24 "Hg6 mi
7:53 am26 °FIce fog.7 mph84%30.22 "Hg5 mi
6:53 am26 °FIce fog.5 mph84%30.19 "Hg6 mi
5:53 am23 °FIce fog.5 mph88%30.16 "Hg6 mi
5:16 am23 °FPassing clouds.5 mph88%30.13 "Hg7 mi
5:01 am25 °FPassing clouds.6 mph85%30.12 "Hg7 mi
3:53 am26 °FIce fog.5 mph88%30.13 "Hg6 mi
2:53 am26 °FIce fog.6 mph84%30.11 "Hg6 mi
2:32 am25 °FIce fog.7 mph88%30.08 "Hg6 mi
2:12 am24 °FIce fog.7 mph88%30.08 "Hg6 mi
1:53 am25 °FIce fog.7 mph88%30.11 "Hg6 mi
1:21 am25 °FIce fog.3 mph92%30.07 "Hg5 mi
12:53 am25 °FLight snow. Ice fog.3 mph88%30.11 "Hg3 mi
11:53 pm
Wed, Nov 13
25 °FLight snow. Ice fog.5 mph88%30.10 "Hg4 mi
11:31 pm26 °FLight snow. Ice fog.7 mph84%30.06 "Hg2 mi
11:20 pm26 °FLight snow. Ice fog.6 mph84%30.07 "Hg2 mi
11:09 pm26 °FLight snow. Ice fog.7 mph84%30.07 "Hg2 mi
9:53 pm26 °FMostly cloudy.9 mph81%30.10 "Hg8 mi
8:53 pm26 °FLight snow. Mostly cloudy.9 mph77%30.10 "Hg7 mi
8:09 pm25 °FLight snow. Ice fog.5 mph85%30.05 "Hg4 mi
8:00 pm25 °FLight snow. Ice fog.6 mph85%30.06 "Hg2 mi
7:37 pm25 °FLight snow. Ice fog.6 mph85%30.06 "Hg3 mi
7:02 pm25 °FLight snow. Overcast.8 mph81%30.05 "Hg3 mi
6:53 pm25 °FLight snow. Overcast.8 mph81%30.09 "Hg1 mi
5:53 pm27 °FMostly cloudy.9 mph58%30.07 "Hg10 mi
Weather by CustomWeather, © 2019

See weather overview